Time,TemperatureF,DewpointF,PressureIn,WindDirection,WindDirectionDegrees,WindSpeedMPH,WindSpeedGustMPH,Humidity,HourlyPrecipIn,Conditions,Clouds,dailyrainin,SolarRadiationWatts/m^2,SoftwareType,DateUTC
2013-07-10 00:01:00,67.0,64.0,29.82,NE,38,2.3,2.3,90,0.00,CLR,,0.00,0.0,WeatherDisplay:10.37,2013-07-10 05:01:00,
2013-07-10 00:06:00,66.8,63.5,29.82,NE,49,3.5,3.5,89,0.00,CLR,,0.00,0.0,WeatherDisplay:10.37,2013-07-10 05:06:00,
2013-07-10 00:11:00,66.8,63.5,29.83,WSW,254,2.3,2.3,89,0.00,CLR,,0.00,0.0,WeatherDisplay:10.37,2013-07-10 05:11:00,
2013-07-10 00:16:00,66.6,63.3,29.83,WSW,258,3.5,3.5,89,0.00,BKN,,0.00,0.0,WeatherDisplay:10.37,2013-07-10 05:16:00,
2013-07-10 00:21:00,66.5,63.2,29.83,NNE,33,3.5,3.5,89,0.00,BKN,,0.00,0.0,WeatherDisplay:10.37,2013-07-10 05:21:00,
2013-07-10 00:26:00,66.5,63.5,29.83,WSW,253,2.3,2.3,90,0.00,BKN,,0.00,0.0,WeatherDisplay:10.37,2013-07-10 05:26:00,
2013-07-10 00:31:00,66.3,63.0,29.83,NE,36,2.3,2.3,89,0.00,BKN,,0.00,0.0,WeatherDisplay:10.37,2013-07-10 05:31:00,
2013-07-10 00:36:00,66.1,62.8,29.83,NNE,17,2.3,2.3,89,0.00,BKN,,0.00,0.0,WeatherDisplay:10.37,2013-07-10 05:36:00,
2013-07-10 00:41:00,66.0,62.7,29.83,West,265,2.3,2.3,89,0.00,BKN,,0.00,0.0,WeatherDisplay:10.37,2013-07-10 05:41:00,
2013-07-10 00:47:00,65.9,62.2,29.83,West,269,1.1,1.1,88,0.00,BKN,,0.00,0.0,WeatherDisplay:10.37,2013-07-10 05:47:00,
2013-07-10 00:52:00,65.8,62.1,29.83,SSW,210,1.1,1.1,88,0.00,BKN,,0.00,0.0,WeatherDisplay:10.37,2013-07-10 05:52:00,
2013-07-10 00:57:00,65.7,62.0,29.83,North,360,2.3,2.3,88,0.00,BKN,,0.00,0.0,WeatherDisplay:10.37,2013-07-10 05:57:00,
2013-07-10 01:02:00,65.5,62.2,29.84,NW,304,3.5,3.5,89,0.00,BKN,,0.00,0.0,WeatherDisplay:10.37,2013-07-10 06:02:00,
2013-07-10 01:07:00,65.3,62.0,29.84,ESE,120,2.3,0.0,89,0.00,BKN,,0.00,0.0,WeatherDisplay:10.37,2013-07-10 06:07:00,
2013-07-10 01:12:00,65.2,61.9,29.84,ESE,109,2.3,0.0,89,0.00,BKN,,0.00,0.0,WeatherDisplay:10.37,2013-07-10 06:12:00,
2013-07-10 01:17:00,65.1,61.8,29.84,NE,43,2.3,2.3,89,0.00,OVC,,0.00,0.0,WeatherDisplay:10.37,2013-07-10 06:17:00,
2013-07-10 01:22:00,65.0,62.0,29.84,NNW,346,1.1,1.1,90,0.00,OVC,,0.00,0.0,WeatherDisplay:10.37,2013-07-10 06:22:00,
2013-07-10 01:27:00,65.0,62.0,29.84,WSW,247,1.1,1.1,90,0.00,OVC,,0.00,0.0,WeatherDisplay:10.37,2013-07-10 06:27:00,
2013-07-10 01:32:00,65.0,62.0,29.84,WSW,248,0.0,0.0,90,0.00,BKN,,0.00,0.0,WeatherDisplay:10.37,2013-07-10 06:32:00,
2013-07-10 01:37:00,64.9,61.9,29.84,SSW,213,1.1,0.0,90,0.00,BKN,,0.00,0.0,WeatherDisplay:10.37,2013-07-10 06:37:00,
2013-07-10 01:42:00,64.9,62.5,29.84,SSW,213,0.0,0.0,92,0.00,BKN,,0.00,0.0,WeatherDisplay:10.37,2013-07-10 06:42:00,
2013-07-10 01:47:00,64.8,62.1,29.84,North,360,2.3,2.3,91,0.00,BKN,,0.00,0.0,WeatherDisplay:10.37,2013-07-10 06:47:00,
2013-07-10 01:52:00,64.8,62.1,29.84,North,360,1.1,0.0,91,0.00,BKN,,0.00,0.0,WeatherDisplay:10.37,2013-07-10 06:52:00,
2013-07-10 01:57:00,64.8,62.1,29.85,West,267,1.1,1.1,91,0.00,BKN,,0.00,0.0,WeatherDisplay:10.37,2013-07-10 06:57:00,
2013-07-10 02:02:00,64.8,61.8,29.85,North,350,3.5,3.5,90,0.00,BKN,,0.00,0.0,WeatherDisplay:10.37,2013-07-10 07:02:00,
2013-07-10 02:07:00,64.9,61.6,29.85,NNW,346,2.3,2.3,89,0.00,BKN,,0.00,0.0,WeatherDisplay:10.37,2013-07-10 07:07:00,
2013-07-10 02:12:00,64.9,61.6,29.85,WNW,292,5.8,5.8,89,0.00,BKN,,0.00,0.0,WeatherDisplay:10.37,2013-07-10 07:12:00,
2013-07-10 02:17:00,64.8,60.8,29.85,South,173,2.3,2.3,87,0.00,BKN,,0.00,0.0,WeatherDisplay:10.37,2013-07-10 07:17:00,
2013-07-10 02:22:00,64.7,60.4,29.85,SSW,209,3.5,3.5,86,0.00,BKN,,0.00,0.0,WeatherDisplay:10.37,2013-07-10 07:22:00,
2013-07-10 02:27:00,64.5,60.2,29.84,NNE,14,3.5,3.5,86,0.00,BKN,,0.00,0.0,WeatherDisplay:10.37,2013-07-10 07:27:00,
2013-07-10 02:32:00,64.4,60.1,29.85,NNE,14,1.1,0.0,86,0.00,BKN,,0.00,0.0,WeatherDisplay:10.37,2013-07-10 07:32:00,
2013-07-10 02:37:00,64.2,59.6,29.85,NE,42,1.1,1.1,85,0.00,BKN,,0.00,0.0,WeatherDisplay:10.37,2013-07-10 07:37:00,
2013-07-10 02:42:00,64.0,59.7,29.85,NW,316,4.6,4.6,86,0.00,BKN,,0.00,0.0,WeatherDisplay:10.37,2013-07-10 07:42:00,
2013-07-10 02:47:00,63.8,59.2,29.85,WNW,296,3.5,3.5,85,0.00,BKN,,0.00,0.0,WeatherDisplay:10.37,2013-07-10 07:47:00,
2013-07-10 02:52:00,63.7,59.1,29.86,WNW,284,3.5,3.5,85,0.00,BKN,,0.00,0.0,WeatherDisplay:10.37,2013-07-10 07:52:00,
2013-07-10 02:57:00,63.6,59.0,29.86,ENE,60,1.1,1.1,85,0.00,BKN,,0.00,0.0,WeatherDisplay:10.37,2013-07-10 07:57:00,
2013-07-10 03:02:00,63.6,59.0,29.86,ENE,57,2.3,2.3,85,0.00,OVC,,0.00,0.0,WeatherDisplay:10.37,2013-07-10 08:02:00,
2013-07-10 03:07:00,63.5,58.6,29.86,North,5,5.8,5.8,84,0.00,OVC,,0.00,0.0,WeatherDisplay:10.37,2013-07-10 08:07:00,
2013-07-10 03:12:00,63.6,59.0,29.86,NE,51,2.3,2.3,85,0.00,OVC,,0.00,0.0,WeatherDisplay:10.37,2013-07-10 08:12:00,
2013-07-10 03:17:00,63.5,58.2,29.86,North,5,2.3,2.3,83,0.00,OVC,,0.00,0.0,WeatherDisplay:10.37,2013-07-10 08:17:00,
2013-07-10 03:22:00,63.5,58.6,29.86,ESE,105,4.6,4.6,84,0.00,OVC,,0.00,0.0,WeatherDisplay:10.37,2013-07-10 08:22:00,
2013-07-10 03:27:00,63.5,58.6,29.87,NNE,15,6.9,6.9,84,0.00,OVC,,0.00,0.0,WeatherDisplay:10.37,2013-07-10 08:27:00,
2013-07-10 03:32:00,63.5,58.6,29.87,West,272,3.5,3.5,84,0.00,OVC,,0.00,0.0,WeatherDisplay:10.37,2013-07-10 08:32:00,
2013-07-10 03:37:00,63.4,58.5,29.87,WSW,257,5.8,5.8,84,0.00,OVC,,0.00,0.0,WeatherDisplay:10.37,2013-07-10 08:37:00,
2013-07-10 03:42:00,63.3,58.0,29.87,NNW,347,2.3,2.3,83,0.00,OVC,,0.00,0.0,WeatherDisplay:10.37,2013-07-10 08:42:00,
2013-07-10 03:47:00,63.1,57.9,29.86,NNE,22,3.5,3.5,83,0.00,OVC,,0.00,0.0,WeatherDisplay:10.37,2013-07-10 08:47:00,
2013-07-10 03:52:00,62.9,58.0,29.87,ESE,114,3.5,3.5,84,0.00,OVC,,0.00,0.0,WeatherDisplay:10.37,2013-07-10 08:52:00,
2013-07-10 03:57:00,62.7,57.8,29.87,South,173,4.6,4.6,84,0.00,OVC,,0.00,0.0,WeatherDisplay:10.37,2013-07-10 08:57:00,
2013-07-10 04:02:00,62.5,57.9,29.88,SW,231,4.6,4.6,85,0.00,CLR,,0.00,0.0,WeatherDisplay:10.37,2013-07-10 09:02:00,
2013-07-10 04:14:00,62.3,57.4,29.88,NNE,13,4.0,4.0,84,0.00,CLR,,0.00,0.0,WeatherDisplay:10.37,2013-07-10 09:14:00,
2013-07-10 04:19:00,62.1,57.2,29.88,SSW,208,3.5,3.5,84,0.00,CLR,,0.00,0.0,WeatherDisplay:10.37,2013-07-10 09:19:00,
2013-07-10 04:24:00,61.9,57.0,29.89,WSW,255,3.5,3.5,84,0.00,CLR,,0.00,0.0,WeatherDisplay:10.37,2013-07-10 09:24:00,
2013-07-10 04:29:00,61.8,57.2,29.89,West,280,2.3,2.3,85,0.00,CLR,,0.00,0.0,WeatherDisplay:10.37,2013-07-10 09:29:00,
2013-07-10 04:34:00,61.6,57.0,29.89,ENE,68,2.3,2.3,85,0.00,CLR,,0.00,0.0,WeatherDisplay:10.37,2013-07-10 09:34:00,
2013-07-10 04:39:00,61.4,56.5,29.89,NE,46,6.9,6.9,84,0.00,CLR,,0.00,0.0,WeatherDisplay:10.37,2013-07-10 09:39:00,
2013-07-10 04:44:00,61.3,56.8,29.89,SSE,157,1.1,1.1,85,0.00,CLR,,0.00,0.0,WeatherDisplay:10.37,2013-07-10 09:44:00,
2013-07-10 04:49:00,61.1,56.9,29.89,North,350,2.3,2.3,86,0.00,CLR,,0.00,0.0,WeatherDisplay:10.37,2013-07-10 09:49:00,
2013-07-10 04:54:00,61.0,56.8,29.89,WSW,242,3.5,3.5,86,0.00,CLR,,0.00,0.0,WeatherDisplay:10.37,2013-07-10 09:54:00,
2013-07-10 04:59:00,60.9,56.7,29.89,SSW,202,3.5,3.5,86,0.00,CLR,,0.00,0.0,WeatherDisplay:10.37,2013-07-10 09:59:00,
2013-07-10 05:04:00,60.7,56.5,29.90,WSW,248,3.5,3.5,86,0.00,CLR,,0.00,0.0,WeatherDisplay:10.37,2013-07-10 10:04:00,
2013-07-10 05:09:00,60.6,56.4,29.90,West,268,7.0,7.0,86,0.00,CLR,,0.00,0.0,WeatherDisplay:10.37,2013-07-10 10:09:00,
2013-07-10 05:14:00,60.5,56.3,29.90,NNE,24,2.0,2.0,86,0.00,CLR,,0.00,0.0,WeatherDisplay:10.37,2013-07-10 10:14:00,
2013-07-10 05:19:00,60.4,56.5,29.90,West,273,1.1,1.1,87,0.00,CLR,,0.00,0.0,WeatherDisplay:10.37,2013-07-10 10:19:00,
2013-07-10 05:24:00,60.2,56.3,29.90,NNE,15,3.5,3.5,87,0.00,CLR,,0.00,0.0,WeatherDisplay:10.37,2013-07-10 10:24:00,
2013-07-10 05:29:00,60.1,56.2,29.91,NNE,20,3.5,3.5,87,0.00,CLR,,0.00,0.0,WeatherDisplay:10.37,2013-07-10 10:29:00,
2013-07-10 05:34:00,60.0,56.4,29.91,WNW,285,0.0,0.0,88,0.00,CLR,,0.00,0.0,WeatherDisplay:10.37,2013-07-10 10:34:00,
2013-07-10 05:39:00,59.9,56.0,29.91,WSW,238,3.5,3.5,87,0.00,CLR,,0.00,5.0,WeatherDisplay:10.37,2013-07-10 10:39:00,
2013-07-10 05:44:00,59.7,56.1,29.91,SW,225,1.1,0.0,88,0.00,CLR,,0.00,5.0,WeatherDisplay:10.37,2013-07-10 10:44:00,
2013-07-10 05:49:00,59.6,56.4,29.91,SW,225,1.1,0.0,89,0.00,CLR,,0.00,7.0,WeatherDisplay:10.37,2013-07-10 10:49:00,
2013-07-10 05:54:00,59.4,55.8,29.91,WNW,297,1.1,0.0,88,0.00,CLR,,0.00,9.0,WeatherDisplay:10.37,2013-07-10 10:54:00,
2013-07-10 05:59:00,59.2,55.6,29.91,West,259,0.0,0.0,88,0.00,CLR,,0.00,11.0,WeatherDisplay:10.37,2013-07-10 10:59:00,
2013-07-10 06:04:00,59.1,55.9,29.91,North,9,0.0,0.0,89,0.00,CLR,,0.00,12.0,WeatherDisplay:10.37,2013-07-10 11:04:00,
2013-07-10 06:09:00,58.9,56.0,29.91,WSW,242,3.5,3.5,90,0.00,CLR,,0.00,14.0,WeatherDisplay:10.37,2013-07-10 11:09:00,
2013-07-10 06:14:00,58.8,55.9,29.91,WSW,255,1.1,1.1,90,0.00,CLR,,0.00,16.0,WeatherDisplay:10.37,2013-07-10 11:14:00,
2013-07-10 06:19:00,58.7,55.8,29.91,West,265,3.5,3.5,90,0.00,CLR,,0.00,16.0,WeatherDisplay:10.37,2013-07-10 11:19:00,
2013-07-10 06:24:00,58.7,55.8,29.92,North,351,1.1,1.1,90,0.00,CLR,,0.00,18.0,WeatherDisplay:10.37,2013-07-10 11:24:00,
2013-07-10 06:29:00,58.8,55.9,29.92,North,351,1.1,1.1,90,0.00,CLR,,0.00,18.0,WeatherDisplay:10.37,2013-07-10 11:29:00,
2013-07-10 06:34:00,58.8,55.9,29.92,North,351,1.1,1.1,90,0.00,CLR,,0.00,18.0,WeatherDisplay:10.37,2013-07-10 11:34:00,
2013-07-10 06:39:00,58.8,55.9,29.92,WSW,245,1.1,1.1,90,0.00,CLR,,0.00,23.0,WeatherDisplay:10.37,2013-07-10 11:39:00,
2013-07-10 06:44:00,58.8,55.9,29.92,North,351,1.1,1.1,90,0.00,CLR,,0.00,18.0,WeatherDisplay:10.37,2013-07-10 11:44:00,
2013-07-10 06:49:00,58.8,55.9,29.92,North,351,1.1,1.1,90,0.00,CLR,,0.00,18.0,WeatherDisplay:10.37,2013-07-10 11:49:00,
2013-07-10 06:55:00,58.8,55.9,29.92,North,351,1.1,1.1,90,0.00,CLR,,0.00,18.0,WeatherDisplay:10.37,2013-07-10 11:55:00,
2013-07-10 07:00:00,59.4,56.2,29.92,SW,225,4.0,4.0,89,0.00,CLR,,0.00,30.0,WeatherDisplay:10.37,2013-07-10 12:00:00,
2013-07-10 07:05:00,58.8,55.9,29.92,North,351,1.1,1.1,90,0.00,CLR,,0.00,18.0,WeatherDisplay:10.37,2013-07-10 12:05:00,
2013-07-10 07:10:00,59.6,56.0,29.92,SW,232,1.1,1.1,88,0.00,CLR,,0.00,32.0,WeatherDisplay:10.37,2013-07-10 12:10:00,
2013-07-10 07:15:00,59.8,56.2,29.92,West,261,6.0,6.0,88,0.00,CLR,,0.00,32.0,WeatherDisplay:10.37,2013-07-10 12:15:00,
2013-07-10 07:20:00,59.6,56.0,29.92,SW,232,0.0,0.4,88,0.00,CLR,,0.00,32.0,WeatherDisplay:10.37,2013-07-10 12:20:00,
2013-07-10 07:25:00,59.6,56.0,29.92,SW,232,0.0,0.4,88,0.00,CLR,,0.00,32.0,WeatherDisplay:10.37,2013-07-10 12:25:00,
2013-07-10 07:30:00,60.3,56.1,29.92,SW,233,3.5,3.5,86,0.00,CLR,,0.00,79.0,WeatherDisplay:10.37,2013-07-10 12:30:00,
2013-07-10 07:38:00,60.6,56.7,29.93,North,355,3.5,3.5,87,0.00,CLR,,0.00,44.0,WeatherDisplay:10.37,2013-07-10 12:38:00,
2013-07-10 07:43:00,60.8,56.9,29.93,NNE,30,5.8,5.8,87,0.00,CLR,,0.00,42.0,WeatherDisplay:10.37,2013-07-10 12:43:00,
2013-07-10 07:48:00,61.1,56.9,29.93,NW,304,11.5,11.5,86,0.00,CLR,,0.00,79.0,WeatherDisplay:10.37,2013-07-10 12:48:00,
2013-07-10 07:53:00,61.3,57.1,29.93,ENE,72,3.5,3.5,86,0.00,CLR,,0.00,90.0,WeatherDisplay:10.37,2013-07-10 12:53:00,
2013-07-10 07:58:00,61.4,56.8,29.93,NW,325,4.0,4.0,85,0.00,CLR,,0.00,72.0,WeatherDisplay:10.37,2013-07-10 12:58:00,
2013-07-10 08:03:00,61.6,57.4,29.93,SSW,207,3.5,3.5,86,0.00,CLR,,0.00,116.0,WeatherDisplay:10.37,2013-07-10 13:03:00,
2013-07-10 08:08:00,61.8,57.6,29.93,South,173,3.5,3.5,86,0.00,CLR,,0.00,90.0,WeatherDisplay:10.37,2013-07-10 13:08:00,
2013-07-10 08:13:00,61.9,57.3,29.93,South,169,2.3,2.3,85,0.00,CLR,,0.00,62.0,WeatherDisplay:10.37,2013-07-10 13:13:00,
2013-07-10 08:18:00,62.1,57.5,29.94,SW,229,1.0,1.1,85,0.00,CLR,,0.00,77.0,WeatherDisplay:10.37,2013-07-10 13:18:00,
2013-07-10 08:23:00,62.3,57.4,29.94,ENE,57,3.5,3.5,84,0.00,CLR,,0.00,72.0,WeatherDisplay:10.37,2013-07-10 13:23:00,
2013-07-10 08:28:00,62.6,57.7,29.94,NE,42,10.4,10.4,84,0.00,CLR,,0.00,62.0,WeatherDisplay:10.37,2013-07-10 13:28:00,
2013-07-10 08:33:00,62.7,57.5,29.94,WSW,258,3.5,3.5,83,0.00,CLR,,0.00,125.0,WeatherDisplay:10.37,2013-07-10 13:33:00,
2013-07-10 08:38:00,62.9,57.7,29.94,NNE,28,3.5,3.5,83,0.00,CLR,,0.00,155.0,WeatherDisplay:10.37,2013-07-10 13:38:00,
2013-07-10 08:43:00,63.2,57.6,29.94,NNE,22,6.9,6.9,82,0.00,CLR,,0.00,97.0,WeatherDisplay:10.37,2013-07-10 13:43:00,
2013-07-10 08:48:00,63.4,57.8,29.94,SSW,209,6.9,6.9,82,0.00,CLR,,0.00,79.0,WeatherDisplay:10.37,2013-07-10 13:48:00,
2013-07-10 08:53:00,63.6,57.7,29.94,SW,227,3.5,3.5,81,0.00,CLR,,0.00,79.0,WeatherDisplay:10.37,2013-07-10 13:53:00,
2013-07-10 08:58:00,63.8,57.9,29.94,WNW,302,3.5,3.5,81,0.00,CLR,,0.00,107.0,WeatherDisplay:10.37,2013-07-10 13:58:00,
2013-07-10 09:03:00,63.9,57.6,29.94,NW,312,3.5,3.5,80,0.00,FEW,,0.00,102.0,WeatherDisplay:10.37,2013-07-10 14:03:00,
2013-07-10 09:08:00,64.0,57.7,29.94,WNW,295,3.5,3.5,80,0.00,FEW,,0.00,125.0,WeatherDisplay:10.37,2013-07-10 14:08:00,
2013-07-10 09:13:00,64.1,57.5,29.94,WNW,298,2.3,2.3,79,0.00,FEW,,0.00,81.0,WeatherDisplay:10.37,2013-07-10 14:13:00,
2013-07-10 09:18:00,64.3,57.3,29.95,NNE,15,3.5,3.5,78,0.00,FEW,,0.00,86.0,WeatherDisplay:10.37,2013-07-10 14:18:00,
2013-07-10 09:23:00,64.4,57.7,29.94,NNE,27,2.3,2.3,79,0.00,FEW,,0.00,334.0,WeatherDisplay:10.37,2013-07-10 14:23:00,
2013-07-10 09:28:00,64.7,57.7,29.95,WSW,248,4.6,4.6,78,0.00,FEW,,0.00,192.0,WeatherDisplay:10.37,2013-07-10 14:28:00,
2013-07-10 09:33:00,64.9,57.9,29.95,SW,228,1.1,1.1,78,0.00,FEW,,0.00,132.0,WeatherDisplay:10.37,2013-07-10 14:33:00,
2013-07-10 09:38:00,65.0,57.6,29.95,SSW,210,2.3,2.3,77,0.00,FEW,,0.00,86.0,WeatherDisplay:10.37,2013-07-10 14:38:00,
2013-07-10 09:43:00,64.9,57.2,29.95,SSW,200,1.1,1.1,76,0.00,FEW,,0.00,213.0,WeatherDisplay:10.37,2013-07-10 14:43:00,
2013-07-10 09:48:00,65.0,57.6,29.95,ESE,119,4.6,4.6,77,0.00,FEW,,0.00,149.0,WeatherDisplay:10.37,2013-07-10 14:48:00,
2013-07-10 09:53:00,65.1,57.0,29.95,WSW,248,4.6,4.6,75,0.00,FEW,,0.00,167.0,WeatherDisplay:10.37,2013-07-10 14:53:00,
2013-07-10 09:58:00,64.9,56.8,29.95,WNW,302,0.0,0.0,75,0.00,FEW,,0.00,116.0,WeatherDisplay:10.37,2013-07-10 14:58:00,
2013-07-10 10:03:00,64.8,57.1,29.95,ENE,57,5.8,5.8,76,0.00,SCT,,0.00,144.0,WeatherDisplay:10.37,2013-07-10 15:03:00,
2013-07-10 10:08:00,65.0,56.9,29.95,ENE,63,3.5,3.5,75,0.00,SCT,,0.00,167.0,WeatherDisplay:10.37,2013-07-10 15:08:00,
2013-07-10 10:13:00,65.4,56.9,29.95,SE,139,3.5,3.5,74,0.00,SCT,,0.00,162.0,WeatherDisplay:10.37,2013-07-10 15:13:00,
2013-07-10 10:18:00,65.8,57.7,29.95,ENE,76,2.3,2.3,75,0.00,SCT,,0.00,165.0,WeatherDisplay:10.37,2013-07-10 15:18:00,
2013-07-10 10:23:00,66.1,57.6,29.95,SW,231,6.0,6.0,74,0.00,SCT,,0.00,279.0,WeatherDisplay:10.37,2013-07-10 15:23:00,
2013-07-10 10:28:00,66.5,58.0,29.96,West,263,3.5,3.5,74,0.00,SCT,,0.00,97.0,WeatherDisplay:10.37,2013-07-10 15:28:00,
2013-07-10 10:33:00,66.7,57.0,29.95,SSE,157,2.3,2.3,71,0.00,SCT,,0.00,113.0,WeatherDisplay:10.37,2013-07-10 15:33:00,
2013-07-10 10:38:00,66.8,56.7,29.95,NNE,16,3.5,3.5,70,0.00,SCT,,0.00,114.0,WeatherDisplay:10.37,2013-07-10 15:38:00,
2013-07-10 10:43:00,67.0,57.3,29.95,SE,139,3.5,3.5,71,0.00,SCT,,0.00,162.0,WeatherDisplay:10.37,2013-07-10 15:43:00,
2013-07-10 10:48:00,67.1,57.0,29.96,NE,40,3.5,3.5,70,0.00,SCT,,0.00,209.0,WeatherDisplay:10.37,2013-07-10 15:48:00,
2013-07-10 10:53:00,67.1,56.6,29.96,WSW,252,4.6,4.6,69,0.00,SCT,,0.00,153.0,WeatherDisplay:10.37,2013-07-10 15:53:00,
2013-07-10 10:58:00,66.9,56.4,29.96,WNW,288,2.3,2.3,69,0.00,SCT,,0.00,121.0,WeatherDisplay:10.37,2013-07-10 15:58:00,
2013-07-10 11:03:00,67.0,56.9,29.96,NE,38,1.1,1.1,70,0.00,BKN,,0.00,828.0,WeatherDisplay:10.37,2013-07-10 16:03:00,
2013-07-10 11:08:00,67.7,58.0,29.96,South,180,3.5,3.5,71,0.00,BKN,,0.00,918.0,WeatherDisplay:10.37,2013-07-10 16:08:00,
2013-07-10 11:13:00,68.4,57.4,29.96,NE,41,5.0,5.0,68,0.00,BKN,,0.00,765.0,WeatherDisplay:10.37,2013-07-10 16:13:00,
2013-07-10 11:18:00,68.7,57.7,29.96,North,355,2.3,2.3,68,0.00,BKN,,0.00,225.0,WeatherDisplay:10.37,2013-07-10 16:18:00,
2013-07-10 11:23:00,68.5,56.7,29.97,ENE,78,3.5,3.5,66,0.00,BKN,,0.00,162.0,WeatherDisplay:10.37,2013-07-10 16:23:00,
2013-07-10 11:28:00,68.2,57.6,29.97,WNW,301,0.0,0.3,69,0.00,BKN,,0.00,875.0,WeatherDisplay:10.37,2013-07-10 16:28:00,
2013-07-10 11:33:00,68.8,57.0,29.97,NE,41,3.5,3.5,66,0.00,BKN,,0.00,911.0,WeatherDisplay:10.37,2013-07-10 16:33:00,
2013-07-10 11:38:00,69.5,57.6,29.97,ENE,67,3.5,3.5,66,0.00,BKN,,0.00,969.0,WeatherDisplay:10.37,2013-07-10 16:38:00,
2013-07-10 11:43:00,69.4,57.1,29.97,NE,44,4.6,4.6,65,0.00,BKN,,0.00,102.0,WeatherDisplay:10.37,2013-07-10 16:43:00,
2013-07-10 11:48:00,69.4,56.7,29.97,SW,214,6.9,6.9,64,0.00,BKN,,0.00,1013.0,WeatherDisplay:10.37,2013-07-10 16:48:00,
2013-07-10 11:53:00,69.3,56.2,29.97,WNW,294,6.0,6.0,63,0.00,BKN,,0.00,190.0,WeatherDisplay:10.37,2013-07-10 16:53:00,
2013-07-10 11:58:00,69.1,56.0,29.97,NNE,26,2.3,2.3,63,0.00,BKN,,0.00,1034.0,WeatherDisplay:10.37,2013-07-10 16:58:00,
2013-07-10 12:03:00,69.2,56.9,29.97,NNE,33,3.5,3.5,65,0.00,BKN,,0.00,257.0,WeatherDisplay:10.37,2013-07-10 17:03:00,
2013-07-10 12:08:00,69.6,57.7,29.97,East,96,5.0,5.0,66,0.00,BKN,,0.00,967.0,WeatherDisplay:10.37,2013-07-10 17:08:00,
2013-07-10 12:14:00,70.5,57.7,29.97,NNW,337,2.0,2.0,64,0.00,BKN,,0.00,246.0,WeatherDisplay:10.37,2013-07-10 17:14:00,
2013-07-10 12:19:00,70.8,57.1,29.97,NE,55,3.5,3.5,62,0.00,SCT,,0.00,1125.0,WeatherDisplay:10.37,2013-07-10 17:19:00,
2013-07-10 12:24:00,70.9,56.8,29.97,NNW,337,3.5,3.5,61,0.00,SCT,,0.00,294.0,WeatherDisplay:10.37,2013-07-10 17:24:00,
2013-07-10 12:29:00,70.7,57.0,29.97,SW,229,5.0,5.0,62,0.00,SCT,,0.00,935.0,WeatherDisplay:10.37,2013-07-10 17:29:00,
2013-07-10 12:34:00,71.3,57.6,29.98,ENE,78,1.1,1.2,62,0.00,SCT,,0.00,1030.0,WeatherDisplay:10.37,2013-07-10 17:34:00,
2013-07-10 12:39:00,71.9,56.3,29.97,SSW,202,6.9,6.9,58,0.00,SCT,,0.00,1028.0,WeatherDisplay:10.37,2013-07-10 17:39:00,
2013-07-10 12:44:00,71.9,57.7,29.97,SW,235,4.0,4.0,61,0.00,SCT,,0.00,933.0,WeatherDisplay:10.37,2013-07-10 17:44:00,
2013-07-10 12:49:00,72.2,56.6,29.97,NE,46,3.5,3.5,58,0.00,SCT,,0.00,1023.0,WeatherDisplay:10.37,2013-07-10 17:49:00,
2013-07-10 12:54:00,72.5,55.9,29.98,North,5,4.6,4.6,56,0.00,SCT,,0.00,264.0,WeatherDisplay:10.37,2013-07-10 17:54:00,
2013-07-10 12:59:00,72.6,58.4,29.97,NE,46,2.3,2.3,61,0.00,SCT,,0.00,970.0,WeatherDisplay:10.37,2013-07-10 17:59:00,
2013-07-10 13:04:00,73.0,57.3,29.98,NNE,16,2.0,2.0,58,0.00,SCT,,0.00,1004.0,WeatherDisplay:10.37,2013-07-10 18:04:00,
2013-07-10 13:09:00,73.5,59.2,29.97,SW,224,2.3,2.3,61,0.00,SCT,,0.00,1055.0,WeatherDisplay:10.37,2013-07-10 18:09:00,
2013-07-10 13:14:00,74.1,60.2,29.97,West,273,3.5,3.5,62,0.00,SCT,,0.00,979.0,WeatherDisplay:10.37,2013-07-10 18:14:00,
2013-07-10 13:19:00,74.5,58.3,29.97,WSW,241,2.3,2.3,57,0.00,SCT,,0.00,956.0,WeatherDisplay:10.37,2013-07-10 18:19:00,
2013-07-10 13:24:00,74.6,56.9,29.97,WSW,251,6.9,6.9,54,0.00,SCT,,0.00,970.0,WeatherDisplay:10.37,2013-07-10 18:24:00,
2013-07-10 13:29:00,74.6,57.9,29.97,NW,325,3.5,3.5,56,0.00,SCT,,0.00,181.0,WeatherDisplay:10.37,2013-07-10 18:29:00,
2013-07-10 13:34:00,74.4,58.2,29.97,NE,41,3.5,3.5,57,0.00,SCT,,0.00,1028.0,WeatherDisplay:10.37,2013-07-10 18:34:00,
2013-07-10 13:39:00,74.4,58.2,29.97,NE,49,6.9,6.9,57,0.00,SCT,,0.00,1000.0,WeatherDisplay:10.37,2013-07-10 18:39:00,
2013-07-10 13:44:00,74.4,55.6,29.97,NNE,32,5.8,5.8,52,0.00,SCT,,0.00,963.0,WeatherDisplay:10.37,2013-07-10 18:44:00,
2013-07-10 13:49:00,74.3,56.6,29.97,SSW,196,4.0,4.0,54,0.00,SCT,,0.00,979.0,WeatherDisplay:10.37,2013-07-10 18:49:00,
2013-07-10 13:54:00,74.4,57.2,29.97,NE,51,3.5,3.5,55,0.00,SCT,,0.00,1009.0,WeatherDisplay:10.37,2013-07-10 18:54:00,
2013-07-10 13:59:00,74.1,56.9,29.97,NNE,27,3.5,3.5,55,0.00,SCT,,0.00,373.0,WeatherDisplay:10.37,2013-07-10 18:59:00,
2013-07-10 14:04:00,73.8,55.1,29.97,NNE,26,2.3,2.3,52,0.00,SCT,,0.00,1092.0,WeatherDisplay:10.37,2013-07-10 19:04:00,
2013-07-10 14:09:00,73.1,55.5,29.97,NE,42,3.5,3.5,54,0.00,SCT,,0.00,257.0,WeatherDisplay:10.37,2013-07-10 19:09:00,
2013-07-10 14:14:00,73.1,57.4,29.97,WSW,253,3.0,3.0,58,0.00,SCT,,0.00,960.0,WeatherDisplay:10.37,2013-07-10 19:14:00,
2013-07-10 14:19:00,73.1,56.5,29.97,WNW,294,4.6,4.6,56,0.00,SCT,,0.00,981.0,WeatherDisplay:10.37,2013-07-10 19:19:00,
2013-07-10 14:24:00,73.6,56.9,29.97,NE,56,4.6,4.6,56,0.00,SCT,,0.00,981.0,WeatherDisplay:10.37,2013-07-10 19:24:00,
2013-07-10 14:29:00,74.1,54.8,29.97,SW,232,3.5,3.5,51,0.00,SCT,,0.00,1009.0,WeatherDisplay:10.37,2013-07-10 19:29:00,
2013-07-10 14:34:00,74.2,54.4,29.97,NNE,19,5.8,5.8,50,0.00,SCT,,0.00,1018.0,WeatherDisplay:10.37,2013-07-10 19:34:00,
2013-07-10 14:39:00,74.1,56.4,29.97,ESE,111,2.3,2.3,54,0.00,SCT,,0.00,911.0,WeatherDisplay:10.37,2013-07-10 19:39:00,
2013-07-10 14:44:00,74.3,55.0,29.97,NE,41,3.5,3.5,51,0.00,SCT,,0.00,925.0,WeatherDisplay:10.37,2013-07-10 19:44:00,
2013-07-10 14:49:00,74.5,55.7,29.97,North,11,4.6,4.6,52,0.00,SCT,,0.00,891.0,WeatherDisplay:10.37,2013-07-10 19:49:00,
2013-07-10 14:54:00,74.9,56.1,29.97,East,96,1.1,1.1,52,0.00,SCT,,0.00,909.0,WeatherDisplay:10.37,2013-07-10 19:54:00,
2013-07-10 14:59:00,75.3,56.5,29.97,South,173,4.6,4.6,52,0.00,SCT,,0.00,958.0,WeatherDisplay:10.37,2013-07-10 19:59:00,
2013-07-10 15:04:00,75.7,56.3,29.97,NW,316,3.5,3.5,51,0.00,SCT,,0.00,918.0,WeatherDisplay:10.37,2013-07-10 20:04:00,
2013-07-10 15:09:00,75.7,54.6,29.97,South,190,6.9,6.9,48,0.00,SCT,,0.00,902.0,WeatherDisplay:10.37,2013-07-10 20:09:00,
2013-07-10 15:14:00,75.6,55.1,29.96,NNW,342,3.5,3.5,49,0.00,SCT,,0.00,856.0,WeatherDisplay:10.37,2013-07-10 20:14:00,
2013-07-10 15:19:00,75.9,55.9,29.96,ENE,62,3.5,3.5,50,0.00,BKN,,0.00,846.0,WeatherDisplay:10.37,2013-07-10 20:19:00,
2013-07-10 15:24:00,76.2,56.2,29.96,NNE,27,3.5,3.5,50,0.00,BKN,,0.00,851.0,WeatherDisplay:10.37,2013-07-10 20:24:00,
2013-07-10 15:29:00,76.5,54.8,29.96,WSW,242,5.8,5.8,47,0.00,BKN,,0.00,844.0,WeatherDisplay:10.37,2013-07-10 20:29:00,
2013-07-10 15:34:00,76.7,56.1,29.96,WSW,251,3.5,3.5,49,0.00,BKN,,0.00,823.0,WeatherDisplay:10.37,2013-07-10 20:34:00,
2013-07-10 15:39:00,76.7,54.4,29.96,West,269,6.0,6.0,46,0.00,BKN,,0.00,851.0,WeatherDisplay:10.37,2013-07-10 20:39:00,
2013-07-10 15:44:00,76.1,55.5,29.96,NNE,28,2.3,2.3,49,0.00,BKN,,0.00,816.0,WeatherDisplay:10.37,2013-07-10 20:44:00,
2013-07-10 15:49:00,76.1,55.5,29.96,East,82,3.5,3.5,49,0.00,BKN,,0.00,807.0,WeatherDisplay:10.37,2013-07-10 20:49:00,
2013-07-10 15:54:00,76.2,55.6,29.96,NE,37,6.9,6.9,49,0.00,BKN,,0.00,780.0,WeatherDisplay:10.37,2013-07-10 20:54:00,
2013-07-10 15:59:00,76.4,56.4,29.96,South,189,5.8,5.8,50,0.00,BKN,,0.00,795.0,WeatherDisplay:10.37,2013-07-10 20:59:00,
2013-07-10 16:04:00,76.5,55.3,29.96,SSW,201,1.1,1.1,48,0.00,CLR,,0.00,752.0,WeatherDisplay:10.37,2013-07-10 21:04:00,
2013-07-10 16:09:00,76.9,55.7,29.96,SSW,202,3.5,3.5,48,0.00,CLR,,0.00,763.0,WeatherDisplay:10.37,2013-07-10 21:09:00,
2013-07-10 16:14:00,76.8,54.5,29.96,WSW,244,9.2,9.2,46,0.00,CLR,,0.00,661.0,WeatherDisplay:10.37,2013-07-10 21:14:00,
2013-07-10 16:19:00,76.6,56.6,29.96,WSW,248,2.3,2.3,50,0.00,CLR,,0.00,714.0,WeatherDisplay:10.37,2013-07-10 21:19:00,
2013-07-10 16:24:00,76.5,54.8,29.96,WSW,250,5.8,5.8,47,0.00,CLR,,0.00,710.0,WeatherDisplay:10.37,2013-07-10 21:24:00,
2013-07-10 16:29:00,76.5,55.3,29.96,NNE,22,8.1,8.1,48,0.00,CLR,,0.00,671.0,WeatherDisplay:10.37,2013-07-10 21:29:00,
2013-07-10 16:34:00,76.4,56.4,29.95,ESE,116,3.5,3.5,50,0.00,CLR,,0.00,677.0,WeatherDisplay:10.37,2013-07-10 21:34:00,
2013-07-10 16:39:00,76.4,55.8,29.95,WNW,298,2.3,2.3,49,0.00,CLR,,0.00,675.0,WeatherDisplay:10.37,2013-07-10 21:39:00,
2013-07-10 16:44:00,76.6,56.0,29.95,WSW,246,3.5,3.5,49,0.00,CLR,,0.00,657.0,WeatherDisplay:10.37,2013-07-10 21:44:00,
2013-07-10 16:49:00,76.4,56.4,29.95,ENE,62,2.3,2.3,50,0.00,CLR,,0.00,645.0,WeatherDisplay:10.37,2013-07-10 21:49:00,
2013-07-10 16:55:00,76.2,54.5,29.95,North,5,4.6,4.6,47,0.00,CLR,,0.00,111.0,WeatherDisplay:10.37,2013-07-10 21:55:00,
2013-07-10 17:00:00,76.1,55.5,29.95,NE,50,2.0,2.0,49,0.00,CLR,,0.00,619.0,WeatherDisplay:10.37,2013-07-10 22:00:00,
2013-07-10 17:05:00,76.4,55.8,29.95,WSW,244,3.5,3.5,49,0.00,CLR,,0.00,587.0,WeatherDisplay:10.37,2013-07-10 22:05:00,
2013-07-10 17:10:00,76.7,56.1,29.95,NW,313,1.1,1.1,49,0.00,CLR,,0.00,578.0,WeatherDisplay:10.37,2013-07-10 22:10:00,
2013-07-10 17:15:00,77.0,56.4,29.95,SW,233,0.0,0.0,49,0.00,CLR,,0.00,473.0,WeatherDisplay:10.37,2013-07-10 22:15:00,
2013-07-10 17:20:00,77.1,55.9,29.95,WSW,250,3.5,3.5,48,0.00,FEW,,0.00,570.0,WeatherDisplay:10.37,2013-07-10 22:20:00,
2013-07-10 17:25:00,77.3,56.6,29.95,SSW,199,3.5,3.5,49,0.00,FEW,,0.00,533.0,WeatherDisplay:10.37,2013-07-10 22:25:00,
2013-07-10 17:30:00,77.3,54.9,29.95,WNW,302,4.6,4.6,46,0.00,FEW,,0.00,517.0,WeatherDisplay:10.37,2013-07-10 22:30:00,
2013-07-10 17:35:00,77.3,57.2,29.95,WNW,282,2.0,2.0,50,0.00,FEW,,0.00,506.0,WeatherDisplay:10.37,2013-07-10 22:35:00,
2013-07-10 17:40:00,77.0,55.2,29.95,SSW,211,4.6,4.6,47,0.00,FEW,,0.00,255.0,WeatherDisplay:10.37,2013-07-10 22:40:00,
2013-07-10 17:45:00,76.5,54.2,29.95,NE,51,6.9,6.9,46,0.00,FEW,,0.00,287.0,WeatherDisplay:10.37,2013-07-10 22:45:00,
2013-07-10 17:50:00,76.0,54.9,29.95,West,262,2.3,2.3,48,0.00,FEW,,0.00,88.0,WeatherDisplay:10.37,2013-07-10 22:50:00,
2013-07-10 17:55:00,75.5,54.4,29.95,West,272,3.5,3.5,48,0.00,FEW,,0.00,58.0,WeatherDisplay:10.37,2013-07-10 22:55:00,
2013-07-10 18:00:00,75.2,55.8,29.95,ENE,63,2.3,2.3,51,0.00,FEW,,0.00,58.0,WeatherDisplay:10.37,2013-07-10 23:00:00,
2013-07-10 18:05:00,74.8,58.1,29.95,NE,38,4.0,4.0,56,0.00,FEW,,0.00,53.0,WeatherDisplay:10.37,2013-07-10 23:05:00,
2013-07-10 18:10:00,74.6,54.7,29.95,NNW,328,2.0,2.0,50,0.00,FEW,,0.00,51.0,WeatherDisplay:10.37,2013-07-10 23:10:00,
2013-07-10 18:15:00,74.2,56.5,29.95,WSW,250,2.3,2.3,54,0.00,FEW,,0.00,51.0,WeatherDisplay:10.37,2013-07-10 23:15:00,
2013-07-10 18:20:00,74.0,54.7,29.95,NNW,344,6.9,6.9,51,0.00,FEW,,0.00,49.0,WeatherDisplay:10.37,2013-07-10 23:20:00,
2013-07-10 18:25:00,73.8,54.5,29.95,NW,316,3.5,3.5,51,0.00,FEW,,0.00,47.0,WeatherDisplay:10.37,2013-07-10 23:25:00,
2013-07-10 18:30:00,73.5,53.7,29.95,WSW,248,3.5,3.5,50,0.00,FEW,,0.00,46.0,WeatherDisplay:10.37,2013-07-10 23:30:00,
2013-07-10 18:35:00,73.4,55.2,29.95,SSW,213,2.0,2.0,53,0.00,FEW,,0.00,44.0,WeatherDisplay:10.37,2013-07-10 23:35:00,
2013-07-10 18:40:00,73.2,55.6,29.95,North,9,2.3,2.3,54,0.00,FEW,,0.00,42.0,WeatherDisplay:10.37,2013-07-10 23:40:00,
2013-07-10 18:45:00,73.0,54.9,29.95,WNW,287,1.1,0.0,53,0.00,FEW,,0.00,42.0,WeatherDisplay:10.37,2013-07-10 23:45:00,
2013-07-10 18:50:00,72.8,54.7,29.95,NNE,22,1.1,1.1,53,0.00,FEW,,0.00,40.0,WeatherDisplay:10.37,2013-07-10 23:50:00,
2013-07-10 18:55:00,72.6,57.0,29.95,West,269,1.1,0.0,58,0.01,RA,,0.01,39.0,WeatherDisplay:10.37,2013-07-10 23:55:00,
2013-07-10 19:00:00,72.4,56.8,29.95,WNW,282,1.1,1.1,58,0.01,RA,,0.01,39.0,WeatherDisplay:10.37,2013-07-11 00:00:00,
2013-07-10 19:05:00,72.1,55.0,29.96,West,274,1.1,1.1,55,0.01,CLR,,0.01,35.0,WeatherDisplay:10.37,2013-07-11 00:05:00,
2013-07-10 19:10:00,71.8,57.2,29.96,West,274,0.0,0.0,60,0.01,CLR,,0.01,35.0,WeatherDisplay:10.37,2013-07-11 00:10:00,
2013-07-10 19:15:00,71.2,57.5,29.96,West,274,1.1,0.0,62,0.01,CLR,,0.01,33.0,WeatherDisplay:10.37,2013-07-11 00:15:00,
2013-07-10 19:20:00,70.8,58.0,29.96,SW,236,1.1,1.1,64,0.01,CLR,,0.01,32.0,WeatherDisplay:10.37,2013-07-11 00:20:00,
2013-07-10 19:25:00,70.4,58.1,29.96,WSW,249,0.0,0.0,65,0.01,CLR,,0.01,30.0,WeatherDisplay:10.37,2013-07-11 00:25:00,
2013-07-10 19:30:00,70.1,57.8,29.96,WSW,249,0.0,0.0,65,0.01,CLR,,0.01,28.0,WeatherDisplay:10.37,2013-07-11 00:30:00,
2013-07-10 19:35:00,69.8,57.5,29.96,WSW,249,0.0,0.0,65,0.01,CLR,,0.01,28.0,WeatherDisplay:10.37,2013-07-11 00:35:00,
2013-07-10 19:40:00,69.4,57.5,29.96,WSW,249,0.0,0.0,66,0.01,CLR,,0.01,26.0,WeatherDisplay:10.37,2013-07-11 00:40:00,
2013-07-10 19:45:00,69.0,58.0,29.96,WSW,249,0.0,0.0,68,0.01,CLR,,0.01,25.0,WeatherDisplay:10.37,2013-07-11 00:45:00,
2013-07-10 19:50:00,68.6,58.4,29.96,WSW,249,0.0,0.0,70,0.01,CLR,,0.01,23.0,WeatherDisplay:10.37,2013-07-11 00:50:00,
2013-07-10 19:55:00,68.3,58.9,29.96,WSW,249,0.0,0.0,72,0.00,CLR,,0.01,18.0,WeatherDisplay:10.37,2013-07-11 00:55:00,
2013-07-10 20:00:00,68.0,59.4,29.96,WSW,249,0.0,0.0,74,0.00,CLR,,0.01,16.0,WeatherDisplay:10.37,2013-07-11 01:00:00,
2013-07-10 20:05:00,67.7,59.1,29.96,WSW,249,0.0,0.0,74,0.00,SCT,,0.01,14.0,WeatherDisplay:10.37,2013-07-11 01:05:00,
2013-07-10 20:10:00,67.3,58.7,29.96,WSW,249,0.0,0.0,74,0.00,SCT,,0.01,12.0,WeatherDisplay:10.37,2013-07-11 01:10:00,
2013-07-10 20:15:00,66.9,59.1,29.96,WSW,249,0.0,0.0,76,0.00,SCT,,0.01,11.0,WeatherDisplay:10.37,2013-07-11 01:15:00,
2013-07-10 20:20:00,66.7,59.6,29.96,WSW,249,0.0,0.0,78,0.00,SCT,,0.01,9.0,WeatherDisplay:10.37,2013-07-11 01:20:00,
2013-07-10 20:25:00,66.3,59.2,29.96,WSW,249,0.0,0.0,78,0.00,SCT,,0.01,7.0,WeatherDisplay:10.37,2013-07-11 01:25:00,
2013-07-10 20:30:00,66.0,59.7,29.96,WSW,249,0.0,0.0,80,0.00,SCT,,0.01,5.0,WeatherDisplay:10.37,2013-07-11 01:30:00,
2013-07-10 20:35:00,65.7,59.4,29.96,WSW,249,0.0,0.0,80,0.00,SCT,,0.01,5.0,WeatherDisplay:10.37,2013-07-11 01:35:00,
2013-07-10 20:40:00,65.3,59.3,29.96,WSW,249,0.0,0.0,81,0.00,SCT,,0.01,0.0,WeatherDisplay:10.37,2013-07-11 01:40:00,
2013-07-10 20:45:00,65.0,59.4,29.96,WSW,249,0.0,0.0,82,0.00,SCT,,0.01,0.0,WeatherDisplay:10.37,2013-07-11 01:45:00,
2013-07-10 20:50:00,64.6,59.3,29.96,WSW,249,0.0,0.0,83,0.00,SCT,,0.01,0.0,WeatherDisplay:10.37,2013-07-11 01:50:00,
2013-07-10 20:55:00,64.4,59.5,29.96,WSW,249,0.0,0.0,84,0.00,SCT,,0.01,0.0,WeatherDisplay:10.37,2013-07-11 01:55:00,
2013-07-10 21:00:00,64.2,59.3,29.96,WSW,249,0.0,0.0,84,0.00,SCT,,0.01,0.0,WeatherDisplay:10.37,2013-07-11 02:00:00,
2013-07-10 21:05:00,64.1,59.2,29.96,WSW,249,0.0,0.0,84,0.00,CLR,,0.01,0.0,WeatherDisplay:10.37,2013-07-11 02:05:00,
2013-07-10 21:10:00,63.9,59.0,29.96,WSW,249,0.0,0.0,84,0.00,CLR,,0.01,0.0,WeatherDisplay:10.37,2013-07-11 02:10:00,
2013-07-10 21:15:00,63.7,59.1,29.97,WSW,249,0.0,0.0,85,0.00,CLR,,0.01,0.0,WeatherDisplay:10.37,2013-07-11 02:15:00,
2013-07-10 21:20:00,63.4,59.1,29.97,WSW,249,0.0,0.0,86,0.00,CLR,,0.01,0.0,WeatherDisplay:10.37,2013-07-11 02:20:00,
2013-07-10 21:25:00,63.2,58.9,29.97,WSW,249,0.0,0.0,86,0.00,CLR,,0.01,0.0,WeatherDisplay:10.37,2013-07-11 02:25:00,
2013-07-10 21:30:00,62.9,58.6,29.97,WSW,249,0.0,0.0,86,0.00,CLR,,0.01,0.0,WeatherDisplay:10.37,2013-07-11 02:30:00,
2013-07-10 21:35:00,62.5,58.6,29.98,WSW,249,0.0,0.0,87,0.00,CLR,,0.01,0.0,WeatherDisplay:10.37,2013-07-11 02:35:00,
2013-07-10 21:40:00,62.0,58.4,29.98,WSW,249,0.0,0.0,88,0.00,CLR,,0.01,0.0,WeatherDisplay:10.37,2013-07-11 02:40:00,
2013-07-10 21:45:00,61.6,58.0,29.98,WSW,249,0.0,0.0,88,0.00,CLR,,0.01,0.0,WeatherDisplay:10.37,2013-07-11 02:45:00,
2013-07-10 21:50:00,61.1,57.5,29.98,WSW,249,0.0,0.0,88,0.00,CLR,,0.01,0.0,WeatherDisplay:10.37,2013-07-11 02:50:00,
2013-07-10 21:55:00,60.7,57.4,29.98,WSW,249,0.0,0.0,89,0.00,CLR,,0.01,0.0,WeatherDisplay:10.37,2013-07-11 02:55:00,
2013-07-10 22:00:00,60.5,57.2,29.98,WSW,249,0.0,0.0,89,0.00,CLR,,0.01,0.0,WeatherDisplay:10.37,2013-07-11 03:00:00,
2013-07-10 22:05:00,60.3,57.0,29.99,WSW,249,0.0,0.0,89,0.00,BKN,,0.01,0.0,WeatherDisplay:10.37,2013-07-11 03:05:00,
2013-07-10 22:10:00,60.2,57.3,29.99,WSW,249,0.0,0.0,90,0.00,BKN,,0.01,0.0,WeatherDisplay:10.37,2013-07-11 03:10:00,
2013-07-10 22:15:00,59.9,57.3,29.99,WSW,249,0.0,0.0,91,0.00,BKN,,0.01,0.0,WeatherDisplay:10.37,2013-07-11 03:15:00,
2013-07-10 22:20:00,59.8,57.2,29.99,WSW,249,0.0,0.0,91,0.00,BKN,,0.01,0.0,WeatherDisplay:10.37,2013-07-11 03:20:00,
2013-07-10 22:25:00,59.6,57.0,29.99,WSW,249,0.0,0.0,91,0.00,BKN,,0.01,0.0,WeatherDisplay:10.37,2013-07-11 03:25:00,
2013-07-10 22:31:00,59.5,56.9,29.99,WSW,249,0.0,0.0,91,0.00,BKN,,0.01,0.0,WeatherDisplay:10.37,2013-07-11 03:31:00,
2013-07-10 22:36:00,59.3,56.7,29.99,WSW,249,0.0,0.0,91,0.00,BKN,,0.01,0.0,WeatherDisplay:10.37,2013-07-11 03:36:00,
2013-07-10 22:41:00,59.2,56.9,29.99,WSW,249,0.0,0.0,92,0.00,BKN,,0.01,0.0,WeatherDisplay:10.37,2013-07-11 03:41:00,
2013-07-10 22:46:00,59.1,56.8,29.99,WSW,249,0.0,0.0,92,0.00,BKN,,0.01,0.0,WeatherDisplay:10.37,2013-07-11 03:46:00,
2013-07-10 22:51:00,59.1,56.8,30.00,WSW,249,0.0,0.0,92,0.00,BKN,,0.01,0.0,WeatherDisplay:10.37,2013-07-11 03:51:00,
2013-07-10 22:56:00,59.1,57.1,30.00,WSW,249,0.0,0.0,93,0.00,BKN,,0.01,0.0,WeatherDisplay:10.37,2013-07-11 03:56:00,
2013-07-10 23:01:00,59.1,57.1,30.00,WSW,249,0.0,0.0,93,0.00,BKN,,0.01,0.0,WeatherDisplay:10.37,2013-07-11 04:01:00,
2013-07-10 23:06:00,59.1,57.1,30.00,WSW,249,0.0,0.0,93,0.00,BKN,,0.01,0.0,WeatherDisplay:10.37,2013-07-11 04:06:00,
2013-07-10 23:11:00,59.1,57.1,30.00,WSW,249,0.0,0.0,93,0.00,BKN,,0.01,0.0,WeatherDisplay:10.37,2013-07-11 04:11:00,
2013-07-10 23:16:00,59.2,57.2,30.00,WSW,249,0.0,0.0,93,0.00,OVC,,0.01,0.0,WeatherDisplay:10.37,2013-07-11 04:16:00,
2013-07-10 23:21:00,59.2,57.2,30.00,WSW,249,0.0,0.0,93,0.00,OVC,,0.01,0.0,WeatherDisplay:10.37,2013-07-11 04:21:00,
2013-07-10 23:26:00,59.1,57.1,30.00,WSW,249,0.0,0.0,93,0.00,OVC,,0.01,0.0,WeatherDisplay:10.37,2013-07-11 04:26:00,
2013-07-10 23:31:00,59.1,57.1,30.01,WSW,249,0.0,0.0,93,0.00,OVC,,0.01,0.0,WeatherDisplay:10.37,2013-07-11 04:31:00,
2013-07-10 23:36:00,59.0,57.0,30.00,WSW,249,0.0,0.0,93,0.00,OVC,,0.01,0.0,WeatherDisplay:10.37,2013-07-11 04:36:00,
2013-07-10 23:41:00,59.0,57.0,30.01,WSW,249,0.0,0.0,93,0.00,OVC,,0.01,0.0,WeatherDisplay:10.37,2013-07-11 04:41:00,
2013-07-10 23:46:00,59.0,57.0,30.01,WSW,249,0.0,0.0,93,0.00,OVC,,0.01,0.0,WeatherDisplay:10.37,2013-07-11 04:46:00,
2013-07-10 23:51:00,59.0,57.0,30.01,WSW,249,0.0,0.0,93,0.00,OVC,,0.01,0.0,WeatherDisplay:10.37,2013-07-11 04:51:00,
2013-07-10 23:56:00,58.9,56.9,30.01,WSW,249,0.0,0.0,93,0.00,OVC,,0.01,0.0,WeatherDisplay:10.37,2013-07-11 04:56:00,